Location: Bottenau
(48.5138°N, 8.0462°E)
Time: 20:53:05
(UTC+00:00)

Cosmos 2219 Rocket - Pass Details

Date: 18 April 2021
Orbit: 826 x 848 km, 71.0° (Epoch: 17 May)

Event Time Altitude Azimuth Distance (km) Brightness Sun altitude
Rises 19:06:36 0° 332° (NNW) 3,421 6.4 -7.4°
Reaches altitude 10° 19:09:04 10° 334° (NNW) 2,483 5.5 -7.8°
Maximum altitude 19:14:48 80° 62° (ENE) 867 2.2 -8.6°
Drops below altitude 10° 19:20:28 10° 149° (SSE) 2,465 4.1 -9.5°
Enters shadow 19:21:04 - 149° (SSE) 2,689 4.3 -9.5°
